sat.trackr.live / text

‹ back to catalog

ONEWEB-0429

NORAD 50500 · 2021-132AH

PAYLOAD ACTIVE UNKNOWN

§ Identity

Operator
Country
UK
Launch date
2021-12-27
Launch site
TYMSC
Launch vehicle
Mass (kg)
RCS (m²)

Purposes: comms

External: N2YO · Heavens-Above · Gunter

§ Orbital elements

Epoch: 2026-09-20T02:36:55.172160Z

Period
109.20 min
Inclination
87.9158°
Eccentricity
0.0001898
Mean motion
13.18687505 rev/d
Perigee alt
1,188.3 km
Apogee alt
1,191.2 km
Semi-major
7,567.9 km
B*
2.4805e-4
RAAN
316.5961°
Arg perigee
93.2245°
Mean anomaly
266.9105°
Rev number
23,409

§ Raw data

ONEWEB-04291 50500U 21132AH  26263.10897190  .00000111  00000+0  24805-3 0  99972 50500  87.9158 316.5961 0001898  93.2245 266.9105 13.18687505234093

JSON: /api/v1/satellites/50500 · /tle

For live sub-satellite position, see the globe view (requires WebGL).

§ Visibility from observer

Set your observer location to see the next 7 days of passes ≥ 10°. The values pass through the URL so the page stays shareable.

No JS? Fill the form by hand. The geolocation button needs JavaScript.